Time,TemperatureF,DewpointF,PressureIn,WindDirection,WindDirectionDegrees,WindSpeedMPH,WindSpeedGustMPH,Humidity,HourlyPrecipIn,Conditions,Clouds,dailyrainin,SoftwareType,DateUTC
2013-01-20 00:00:00,43.7,34.7,29.47,WSW,248,12.3,16.3,70,0.00,,,0.00,WUHU216HW,2013-01-20 05:00:00,
2013-01-20 00:01:00,43.7,34.7,29.47,WSW,248,12.3,16.3,70,0.00,,,0.00,WUHU216HW,2013-01-20 05:01:00,
2013-01-20 00:03:00,43.6,34.8,29.47,SSW,203,13.4,16.3,71,0.00,,,0.00,WUHU216HW,2013-01-20 05:03:00,
2013-01-20 00:08:00,43.6,34.5,29.47,WSW,248,7.6,13.4,70,0.00,,,0.00,WUHU216HW,2013-01-20 05:08:00,
2013-01-20 00:13:00,43.6,34.8,29.47,WNW,293,8.3,15.0,71,0.00,,,0.00,WUHU216HW,2013-01-20 05:13:00,
2013-01-20 00:18:00,43.6,34.8,29.47,SW,225,9.8,15.0,71,0.00,,,0.00,WUHU216HW,2013-01-20 05:18:00,
2013-01-20 00:23:00,43.4,34.3,29.47,SW,225,11.2,11.2,70,0.00,,,0.00,WUHU216HW,2013-01-20 05:23:00,
2013-01-20 00:28:00,43.2,34.2,29.47,WSW,248,7.6,14.1,70,0.00,,,0.00,WUHU216HW,2013-01-20 05:28:00,
2013-01-20 00:33:00,43.0,34.3,29.47,West,270,14.3,14.3,71,0.00,,,0.00,WUHU216HW,2013-01-20 05:33:00,
2013-01-20 00:38:00,42.8,34.2,29.47,WNW,293,6.5,14.3,71,0.00,,,0.00,WUHU216HW,2013-01-20 05:38:00,
2013-01-20 00:43:00,42.8,34.2,29.47,West,270,6.3,12.1,71,0.00,,,0.00,WUHU216HW,2013-01-20 05:43:00,
2013-01-20 00:48:00,42.8,34.2,29.47,SSW,203,8.3,12.1,71,0.00,,,0.00,WUHU216HW,2013-01-20 05:48:00,
2013-01-20 00:53:00,42.8,33.8,29.47,South,180,7.6,16.3,70,0.00,,,0.00,WUHU216HW,2013-01-20 05:53:00,
2013-01-20 00:58:00,42.8,34.2,29.47,WSW,248,8.5,16.3,71,0.00,,,0.00,WUHU216HW,2013-01-20 05:58:00,
2013-01-20 01:03:00,42.8,33.8,29.47,SW,225,10.1,15.9,70,0.00,,,0.00,WUHU216HW,2013-01-20 06:03:00,
2013-01-20 01:08:00,42.8,33.8,29.47,WNW,293,7.4,15.9,70,0.00,,,0.00,WUHU216HW,2013-01-20 06:08:00,
2013-01-20 01:13:00,42.7,33.7,29.47,SSW,203,7.4,11.6,70,0.00,,,0.00,WUHU216HW,2013-01-20 06:13:00,
2013-01-20 01:18:00,42.5,33.5,29.47,WSW,248,11.9,12.3,70,0.00,,,0.00,WUHU216HW,2013-01-20 06:18:00,
2013-01-20 01:23:00,42.5,33.5,29.47,SW,225,8.1,12.8,70,0.00,,,0.00,WUHU216HW,2013-01-20 06:23:00,
2013-01-20 01:28:00,42.3,33.0,29.47,West,270,6.9,12.8,69,0.00,,,0.00,WUHU216HW,2013-01-20 06:28:00,
2013-01-20 01:33:00,42.5,32.7,29.48,SSW,203,7.6,14.1,68,0.00,,,0.00,WUHU216HW,2013-01-20 06:33:00,
2013-01-20 01:38:00,42.1,32.3,29.48,West,270,7.6,14.1,68,0.00,,,0.00,WUHU216HW,2013-01-20 06:38:00,
2013-01-20 01:43:00,42.1,32.0,29.48,WSW,248,6.0,12.3,67,0.00,,,0.00,WUHU216HW,2013-01-20 06:43:00,
2013-01-20 01:48:00,42.1,31.6,29.48,WNW,293,11.2,16.8,66,0.00,,,0.00,WUHU216HW,2013-01-20 06:48:00,
2013-01-20 01:53:00,41.9,31.0,29.48,WSW,248,10.3,16.8,65,0.00,,,0.00,WUHU216HW,2013-01-20 06:53:00,
2013-01-20 01:58:00,41.8,30.9,29.48,WSW,248,6.9,15.0,65,0.00,,,0.00,WUHU216HW,2013-01-20 06:58:00,
2013-01-20 02:03:00,41.8,30.9,29.49,SW,225,10.5,11.6,65,0.00,,,0.00,WUHU216HW,2013-01-20 07:03:00,
2013-01-20 02:08:00,41.8,31.2,29.49,SW,225,1.8,11.4,66,0.00,,,0.00,WUHU216HW,2013-01-20 07:08:00,
2013-01-20 02:13:00,41.8,31.2,29.49,West,270,9.2,12.1,66,0.00,,,0.00,WUHU216HW,2013-01-20 07:13:00,
2013-01-20 02:18:00,41.6,29.9,29.49,WSW,248,8.5,12.1,63,0.00,,,0.00,WUHU216HW,2013-01-20 07:18:00,
2013-01-20 02:23:00,41.4,27.7,29.50,WSW,248,11.2,14.1,58,0.00,,,0.00,WUHU216HW,2013-01-20 07:23:00,
2013-01-20 02:28:00,41.0,26.0,29.50,WSW,248,12.8,14.1,55,0.00,,,0.00,WUHU216HW,2013-01-20 07:28:00,
2013-01-20 02:33:00,40.7,24.8,29.51,West,270,6.0,13.9,53,0.00,,,0.00,WUHU216HW,2013-01-20 07:33:00,
2013-01-20 02:38:00,40.5,24.1,29.51,WSW,248,10.3,13.0,52,0.00,,,0.00,WUHU216HW,2013-01-20 07:38:00,
2013-01-20 02:43:00,40.1,24.3,29.52,NNW,338,6.9,13.0,53,0.00,,,0.00,WUHU216HW,2013-01-20 07:43:00,
2013-01-20 02:48:00,39.8,23.5,29.53,SW,225,12.1,12.1,52,0.00,,,0.00,WUHU216HW,2013-01-20 07:48:00,
2013-01-20 02:53:00,39.6,23.3,29.53,South,180,8.5,14.1,52,0.00,,,0.00,WUHU216HW,2013-01-20 07:53:00,
2013-01-20 02:58:00,39.2,22.6,29.54,WNW,293,11.2,14.1,51,0.00,,,0.00,WUHU216HW,2013-01-20 07:58:00,
2013-01-20 03:03:00,39.2,22.6,29.54,WSW,248,6.9,13.6,51,0.00,,,0.00,WUHU216HW,2013-01-20 08:03:00,
2013-01-20 03:08:00,39.1,22.9,29.55,WSW,248,5.4,16.3,52,0.00,,,0.00,WUHU216HW,2013-01-20 08:08:00,
2013-01-20 03:13:00,38.5,21.0,29.56,WSW,248,12.1,16.3,49,0.00,,,0.00,WUHU216HW,2013-01-20 08:13:00,
2013-01-20 03:18:00,37.4,20.0,29.57,West,270,11.0,16.3,49,0.00,,,0.00,WUHU216HW,2013-01-20 08:18:00,
2013-01-20 03:23:00,36.9,20.1,29.58,SSW,203,6.5,16.3,50,0.00,,,0.00,WUHU216HW,2013-01-20 08:23:00,
2013-01-20 03:28:00,36.4,19.5,29.59,West,270,13.0,15.7,50,0.00,,,0.00,WUHU216HW,2013-01-20 08:28:00,
2013-01-20 03:33:00,35.6,17.8,29.59,WNW,293,13.6,15.7,48,0.00,,,0.00,WUHU216HW,2013-01-20 08:33:00,
2013-01-20 03:38:00,34.9,16.7,29.60,WNW,293,9.2,13.6,47,0.00,,,0.00,WUHU216HW,2013-01-20 08:38:00,
2013-01-20 03:43:00,34.4,16.7,29.61,WSW,248,5.8,12.1,48,0.00,,,0.00,WUHU216HW,2013-01-20 08:43:00,
2013-01-20 03:48:00,34.0,17.7,29.61,WNW,293,6.3,12.1,51,0.00,,,0.00,WUHU216HW,2013-01-20 08:48:00,
2013-01-20 03:53:00,33.5,17.6,29.62,NNW,338,6.7,10.3,52,0.00,,,0.00,WUHU216HW,2013-01-20 08:53:00,
2013-01-20 03:58:00,32.9,16.3,29.63,SW,225,5.8,10.3,50,0.00,,,0.00,WUHU216HW,2013-01-20 08:58:00,
2013-01-20 04:03:00,32.4,14.8,29.64,WSW,248,13.9,14.1,48,0.00,,,0.00,WUHU216HW,2013-01-20 09:03:00,
2013-01-20 04:08:00,31.7,14.1,29.64,NW,315,7.2,14.1,48,0.00,,,0.00,WUHU216HW,2013-01-20 09:08:00,
2013-01-20 04:13:00,31.1,14.1,29.64,SW,225,5.4,8.9,49,0.00,,,0.00,WUHU216HW,2013-01-20 09:13:00,
2013-01-20 04:18:00,30.8,14.3,29.64,WSW,248,8.5,9.6,50,0.00,,,0.00,WUHU216HW,2013-01-20 09:18:00,
2013-01-20 04:23:00,30.6,14.6,29.65,NNW,338,1.8,9.6,51,0.00,,,0.00,WUHU216HW,2013-01-20 09:23:00,
2013-01-20 04:28:00,30.4,14.9,29.66,WSW,248,5.1,8.5,52,0.00,,,0.00,WUHU216HW,2013-01-20 09:28:00,
2013-01-20 04:33:00,30.2,14.7,29.66,West,270,11.4,11.4,52,0.00,,,0.00,WUHU216HW,2013-01-20 09:33:00,
2013-01-20 04:38:00,30.2,15.9,29.67,North,0,5.1,11.4,55,0.00,,,0.00,WUHU216HW,2013-01-20 09:38:00,
2013-01-20 04:43:00,29.7,17.6,29.67,SW,225,5.1,7.8,60,0.00,,,0.00,WUHU216HW,2013-01-20 09:43:00,
2013-01-20 04:48:00,29.2,16.7,29.68,SSW,203,9.6,9.6,59,0.00,,,0.00,WUHU216HW,2013-01-20 09:48:00,
2013-01-20 04:53:00,29.0,16.0,29.68,ENE,68,2.5,10.5,58,0.00,,,0.00,WUHU216HW,2013-01-20 09:53:00,
2013-01-20 04:58:00,28.6,16.1,29.69,West,270,5.8,10.5,59,0.00,,,0.00,WUHU216HW,2013-01-20 09:58:00,
2013-01-20 05:03:00,28.4,16.4,29.69,West,270,5.8,8.3,60,0.00,,,0.00,WUHU216HW,2013-01-20 10:03:00,
2013-01-20 05:08:00,28.4,16.4,29.69,SW,225,11.6,11.6,60,0.00,,,0.00,WUHU216HW,2013-01-20 10:08:00,
2013-01-20 05:13:00,28.4,16.7,29.70,SW,225,6.3,11.6,61,0.00,,,0.00,WUHU216HW,2013-01-20 10:13:00,
2013-01-20 05:18:00,28.3,16.6,29.70,NNW,338,6.0,9.4,61,0.00,,,0.00,WUHU216HW,2013-01-20 10:18:00,
2013-01-20 05:23:00,28.1,15.6,29.70,SW,225,11.2,11.2,59,0.00,,,0.00,WUHU216HW,2013-01-20 10:23:00,
2013-01-20 05:28:00,27.7,14.9,29.71,WNW,293,2.2,11.2,58,0.00,,,0.00,WUHU216HW,2013-01-20 10:28:00,
2013-01-20 05:33:00,27.7,15.7,29.71,West,270,5.6,10.5,60,0.00,,,0.00,WUHU216HW,2013-01-20 10:33:00,
2013-01-20 05:38:00,27.4,15.3,29.72,NNW,338,11.6,11.6,60,0.00,,,0.00,WUHU216HW,2013-01-20 10:38:00,
2013-01-20 05:43:00,27.0,14.9,29.72,WSW,248,3.6,11.6,60,0.00,,,0.00,WUHU216HW,2013-01-20 10:43:00,
2013-01-20 05:48:00,26.8,14.0,29.72,SW,225,7.6,9.4,58,0.00,,,0.00,WUHU216HW,2013-01-20 10:48:00,
2013-01-20 05:53:00,26.5,13.6,29.73,NW,315,10.7,10.7,58,0.00,,,0.00,WUHU216HW,2013-01-20 10:53:00,
2013-01-20 05:58:00,25.9,12.7,29.74,NW,315,8.9,11.0,57,0.00,,,0.00,WUHU216HW,2013-01-20 10:58:00,
2013-01-20 06:03:00,25.6,12.0,29.74,North,0,6.7,13.2,56,0.00,,,0.00,WUHU216HW,2013-01-20 11:03:00,
2013-01-20 06:08:00,25.2,11.3,29.75,WSW,248,10.3,13.2,55,0.00,,,0.00,WUHU216HW,2013-01-20 11:08:00,
2013-01-20 06:13:00,24.8,10.4,29.75,West,270,13.4,13.4,54,0.00,,,0.00,WUHU216HW,2013-01-20 11:13:00,
2013-01-20 06:18:00,24.5,10.2,29.76,North,0,3.6,13.4,54,0.00,,,0.00,WUHU216HW,2013-01-20 11:18:00,
2013-01-20 06:23:00,24.1,9.8,29.76,West,270,8.1,11.4,54,0.00,,,0.00,WUHU216HW,2013-01-20 11:23:00,
2013-01-20 06:28:00,24.1,10.2,29.77,NW,315,3.6,11.4,55,0.00,,,0.00,WUHU216HW,2013-01-20 11:28:00,
2013-01-20 06:33:00,23.8,9.9,29.77,WNW,293,1.6,10.5,55,0.00,,,0.00,WUHU216HW,2013-01-20 11:33:00,
2013-01-20 06:38:00,23.8,9.9,29.77,WNW,293,7.8,9.2,55,0.00,,,0.00,WUHU216HW,2013-01-20 11:38:00,
2013-01-20 06:43:00,23.6,10.1,29.78,West,270,9.6,9.6,56,0.00,,,0.00,WUHU216HW,2013-01-20 11:43:00,
2013-01-20 06:48:00,23.6,10.1,29.79,NW,315,4.7,9.6,56,0.00,,,0.00,WUHU216HW,2013-01-20 11:48:00,
2013-01-20 06:53:00,23.4,9.9,29.79,SW,225,6.7,8.9,56,0.00,,,0.00,WUHU216HW,2013-01-20 11:53:00,
2013-01-20 06:58:00,23.2,10.2,29.80,NNW,338,1.8,6.7,57,0.00,,,0.00,WUHU216HW,2013-01-20 11:58:00,
2013-01-20 07:03:00,23.0,10.0,29.80,WSW,248,8.7,8.7,57,0.00,,,0.00,WUHU216HW,2013-01-20 12:03:00,
2013-01-20 07:08:00,23.0,10.0,29.81,WNW,293,5.6,8.7,57,0.00,,,0.00,WUHU216HW,2013-01-20 12:08:00,
2013-01-20 07:13:00,23.0,10.4,29.82,West,270,2.9,5.8,58,0.00,,,0.00,WUHU216HW,2013-01-20 12:13:00,
2013-01-20 07:18:00,22.9,9.8,29.82,NW,315,4.3,7.8,57,0.00,,,0.00,WUHU216HW,2013-01-20 12:18:00,
2013-01-20 07:23:00,22.7,9.6,29.83,WSW,248,3.6,7.6,57,0.00,,,0.00,WUHU216HW,2013-01-20 12:23:00,
2013-01-20 07:28:00,22.7,9.6,29.83,NW,315,7.6,8.7,57,0.00,,,0.00,WUHU216HW,2013-01-20 12:28:00,
2013-01-20 07:33:00,22.7,10.1,29.83,WSW,248,6.3,8.7,58,0.00,,,0.00,WUHU216HW,2013-01-20 12:33:00,
2013-01-20 07:38:00,22.5,9.9,29.84,NW,315,5.4,15.0,58,0.00,,,0.00,WUHU216HW,2013-01-20 12:38:00,
2013-01-20 07:43:00,22.3,10.1,29.84,SW,225,3.4,15.0,59,0.00,,,0.00,WUHU216HW,2013-01-20 12:43:00,
2013-01-20 07:48:00,22.3,10.9,29.85,WSW,248,4.0,7.4,61,0.00,,,0.00,WUHU216HW,2013-01-20 12:48:00,
2013-01-20 07:53:00,22.0,11.3,29.85,WNW,293,4.0,7.4,63,0.00,,,0.00,WUHU216HW,2013-01-20 12:53:00,
2013-01-20 07:58:00,21.6,11.6,29.85,WNW,293,7.4,7.4,65,0.00,,,0.00,WUHU216HW,2013-01-20 12:58:00,
2013-01-20 08:03:00,21.6,11.6,29.85,NNW,338,3.6,7.4,65,0.00,,,0.00,WUHU216HW,2013-01-20 13:03:00,
2013-01-20 08:08:00,21.4,10.7,29.85,West,270,7.6,7.6,63,0.00,,,0.00,WUHU216HW,2013-01-20 13:08:00,
2013-01-20 08:13:00,21.2,10.9,29.86,NW,315,8.1,8.1,64,0.00,,,0.00,WUHU216HW,2013-01-20 13:13:00,
2013-01-20 08:18:00,21.2,10.9,29.87,NNW,338,2.9,8.1,64,0.00,,,0.00,WUHU216HW,2013-01-20 13:18:00,
2013-01-20 08:23:00,21.1,10.7,29.87,NNW,338,4.5,11.0,64,0.00,,,0.00,WUHU216HW,2013-01-20 13:23:00,
2013-01-20 08:28:00,21.2,11.3,29.87,NW,315,12.3,12.3,65,0.00,,,0.00,WUHU216HW,2013-01-20 13:28:00,
2013-01-20 08:33:00,21.2,11.3,29.88,West,270,2.9,12.3,65,0.00,,,0.00,WUHU216HW,2013-01-20 13:33:00,
2013-01-20 08:38:00,21.2,10.5,29.89,WSW,248,4.7,7.6,63,0.00,,,0.00,WUHU216HW,2013-01-20 13:38:00,
2013-01-20 08:43:00,21.1,10.4,29.89,North,0,12.8,12.8,63,0.00,,,0.00,WUHU216HW,2013-01-20 13:43:00,
2013-01-20 08:48:00,20.5,9.2,29.90,NW,315,6.7,12.8,61,0.00,,,0.00,WUHU216HW,2013-01-20 13:48:00,
2013-01-20 08:53:00,20.3,9.0,29.91,South,180,4.0,12.5,61,0.00,,,0.00,WUHU216HW,2013-01-20 13:53:00,
2013-01-20 08:58:00,20.3,8.6,29.91,South,180,6.9,11.4,60,0.00,,,0.00,WUHU216HW,2013-01-20 13:58:00,
2013-01-20 09:03:00,20.0,7.5,29.91,WNW,293,9.8,11.4,58,0.00,,,0.00,WUHU216HW,2013-01-20 14:03:00,
2013-01-20 09:08:00,19.8,7.8,29.92,NW,315,6.9,12.8,59,0.00,,,0.00,WUHU216HW,2013-01-20 14:08:00,
2013-01-20 09:13:00,19.8,7.3,29.93,NNW,338,11.0,13.0,58,0.00,,,0.00,WUHU216HW,2013-01-20 14:13:00,
2013-01-20 09:18:00,19.8,7.8,29.93,SSW,203,4.7,13.0,59,0.00,,,0.00,WUHU216HW,2013-01-20 14:18:00,
2013-01-20 09:23:00,20.0,7.1,29.93,NW,315,6.3,6.3,57,0.00,,,0.00,WUHU216HW,2013-01-20 14:23:00,
2013-01-20 09:28:00,20.0,6.7,29.93,NNW,338,4.0,8.5,56,0.00,,,0.00,WUHU216HW,2013-01-20 14:28:00,
2013-01-20 09:33:00,20.0,6.7,29.94,North,0,4.0,8.9,56,0.00,,,0.00,WUHU216HW,2013-01-20 14:33:00,
2013-01-20 09:38:00,19.8,6.5,29.95,NW,315,11.0,11.0,56,0.00,,,0.00,WUHU216HW,2013-01-20 14:38:00,
2013-01-20 09:43:00,20.0,7.1,29.95,NW,315,3.4,11.0,57,0.00,,,0.00,WUHU216HW,2013-01-20 14:43:00,
2013-01-20 09:48:00,20.3,7.0,29.96,SW,225,4.9,5.6,56,0.00,,,0.00,WUHU216HW,2013-01-20 14:48:00,
2013-01-20 09:53:00,20.5,6.8,29.96,West,270,4.0,8.5,55,0.00,,,0.00,WUHU216HW,2013-01-20 14:53:00,
2013-01-20 09:58:00,20.5,6.8,29.96,West,270,3.4,11.6,55,0.00,,,0.00,WUHU216HW,2013-01-20 14:58:00,
2013-01-20 10:03:00,20.5,6.8,29.96,WSW,248,6.9,11.6,55,0.00,,,0.00,WUHU216HW,2013-01-20 15:03:00,
2013-01-20 10:08:00,20.9,7.1,29.96,NW,315,3.4,9.8,55,0.00,,,0.00,WUHU216HW,2013-01-20 15:08:00,
2013-01-20 10:13:00,21.1,7.3,29.96,SW,225,3.6,9.4,55,0.00,,,0.00,WUHU216HW,2013-01-20 15:13:00,
2013-01-20 10:18:00,21.1,7.3,29.96,West,270,8.3,9.4,55,0.00,,,0.00,WUHU216HW,2013-01-20 15:18:00,
2013-01-20 10:23:00,20.7,7.4,29.96,WSW,248,2.0,9.6,56,0.00,,,0.00,WUHU216HW,2013-01-20 15:23:00,
2013-01-20 10:28:00,20.9,7.1,29.96,NNW,338,5.8,9.6,55,0.00,,,0.00,WUHU216HW,2013-01-20 15:28:00,
2013-01-20 10:33:00,20.9,7.1,29.97,NNW,338,7.8,9.8,55,0.00,,,0.00,WUHU216HW,2013-01-20 15:33:00,
2013-01-20 10:38:00,21.2,7.5,29.97,SW,225,6.3,9.8,55,0.00,,,0.00,WUHU216HW,2013-01-20 15:38:00,
2013-01-20 10:43:00,21.2,7.5,29.97,West,270,3.4,7.2,55,0.00,,,0.00,WUHU216HW,2013-01-20 15:43:00,
2013-01-20 10:48:00,21.6,7.8,29.97,WSW,248,6.3,8.1,55,0.00,,,0.00,WUHU216HW,2013-01-20 15:48:00,
2013-01-20 10:53:00,22.0,7.7,29.98,NW,315,9.6,9.6,54,0.00,,,0.00,WUHU216HW,2013-01-20 15:53:00,
2013-01-20 10:58:00,21.8,6.8,29.98,West,270,6.7,9.6,52,0.00,,,0.00,WUHU216HW,2013-01-20 15:58:00,
2013-01-20 11:03:00,22.1,7.6,29.98,West,270,3.8,8.5,53,0.00,,,0.00,WUHU216HW,2013-01-20 16:03:00,
2013-01-20 11:08:00,22.3,6.8,29.98,West,270,4.5,6.0,51,0.00,,,0.00,WUHU216HW,2013-01-20 16:08:00,
2013-01-20 11:13:00,22.0,6.9,29.99,WSW,248,5.6,6.5,52,0.00,,,0.00,WUHU216HW,2013-01-20 16:13:00,
2013-01-20 11:18:00,22.0,6.1,29.99,WSW,248,8.5,9.8,50,0.00,,,0.00,WUHU216HW,2013-01-20 16:18:00,
2013-01-20 11:23:00,22.1,6.8,29.98,NE,45,1.8,9.8,51,0.00,,,0.00,WUHU216HW,2013-01-20 16:23:00,
2013-01-20 11:28:00,22.5,7.0,29.99,SSW,203,2.7,7.6,51,0.00,,,0.00,WUHU216HW,2013-01-20 16:28:00,
2013-01-20 11:33:00,22.7,6.4,29.99,NW,315,4.7,7.6,49,0.00,,,0.00,WUHU216HW,2013-01-20 16:33:00,
2013-01-20 11:38:00,23.0,7.2,29.99,NNW,338,6.9,7.6,50,0.00,,,0.00,WUHU216HW,2013-01-20 16:38:00,
2013-01-20 11:43:00,23.0,6.8,29.98,WNW,293,6.5,8.5,49,0.00,,,0.00,WUHU216HW,2013-01-20 16:43:00,
2013-01-20 11:48:00,22.9,7.0,29.98,SW,225,5.6,8.5,50,0.00,,,0.00,WUHU216HW,2013-01-20 16:48:00,
2013-01-20 11:53:00,23.0,7.2,29.98,West,270,4.0,7.6,50,0.00,,,0.00,WUHU216HW,2013-01-20 16:53:00,
2013-01-20 11:58:00,23.2,6.8,29.99,WSW,248,4.7,7.8,49,0.00,,,0.00,WUHU216HW,2013-01-20 16:58:00,
2013-01-20 12:03:00,22.9,7.0,29.99,WSW,248,4.0,7.8,50,0.00,,,0.00,WUHU216HW,2013-01-20 17:03:00,
2013-01-20 12:07:00,22.7,7.7,29.99,South,180,1.1,7.6,52,0.00,,,0.00,WUHU216HW,2013-01-20 17:07:00,
2013-01-20 12:13:00,22.3,7.3,29.99,WSW,248,6.3,7.6,52,0.00,,,0.00,WUHU216HW,2013-01-20 17:13:00,
2013-01-20 12:17:00,22.5,8.3,29.99,NW,315,3.4,7.2,54,0.00,,,0.00,WUHU216HW,2013-01-20 17:17:00,
2013-01-20 12:22:00,22.9,8.2,29.98,WNW,293,4.3,6.5,53,0.00,,,0.00,WUHU216HW,2013-01-20 17:22:00,
2013-01-20 12:28:00,22.9,8.7,29.98,NNW,338,2.0,6.0,54,0.00,,,0.00,WUHU216HW,2013-01-20 17:28:00,
2013-01-20 12:32:00,22.9,8.7,29.98,ENE,68,2.9,6.3,54,0.00,,,0.00,WUHU216HW,2013-01-20 17:32:00,
2013-01-20 12:37:00,23.8,9.1,29.99,WSW,248,3.8,6.3,53,0.00,,,0.00,WUHU216HW,2013-01-20 17:37:00,
2013-01-20 12:42:00,23.9,9.3,29.98,West,270,1.3,8.9,53,0.00,,,0.00,WUHU216HW,2013-01-20 17:42:00,
2013-01-20 12:47:00,23.8,9.5,29.98,WNW,293,2.7,8.9,54,0.00,,,0.00,WUHU216HW,2013-01-20 17:47:00,
2013-01-20 12:52:00,23.9,9.6,29.98,SW,225,1.1,7.4,54,0.00,,,0.00,WUHU216HW,2013-01-20 17:52:00,
2013-01-20 12:57:00,24.1,10.2,29.97,NW,315,4.7,5.6,55,0.00,,,0.00,WUHU216HW,2013-01-20 17:57:00,
2013-01-20 13:02:00,23.9,10.1,29.97,WNW,293,4.5,6.3,55,0.00,,,0.00,WUHU216HW,2013-01-20 18:02:00,
2013-01-20 13:07:00,23.8,10.3,29.97,West,270,5.4,7.6,56,0.00,,,0.00,WUHU216HW,2013-01-20 18:07:00,
2013-01-20 13:12:00,23.9,10.1,29.97,WSW,248,1.8,7.6,55,0.00,,,0.00,WUHU216HW,2013-01-20 18:12:00,
2013-01-20 13:17:00,24.1,10.2,29.97,NW,315,4.0,8.5,55,0.00,,,0.00,WUHU216HW,2013-01-20 18:17:00,
2013-01-20 13:22:00,23.8,9.9,29.96,West,270,5.1,8.5,55,0.00,,,0.00,WUHU216HW,2013-01-20 18:22:00,
2013-01-20 13:27:00,23.4,9.6,29.96,NW,315,6.9,6.9,55,0.00,,,0.00,WUHU216HW,2013-01-20 18:27:00,
2013-01-20 13:32:00,23.4,9.9,29.96,WSW,248,2.5,6.9,56,0.00,,,0.00,WUHU216HW,2013-01-20 18:32:00,
2013-01-20 13:37:00,23.4,9.6,29.96,West,270,4.0,6.3,55,0.00,,,0.00,WUHU216HW,2013-01-20 18:37:00,
2013-01-20 13:42:00,23.8,10.3,29.95,SW,225,2.5,5.6,56,0.00,,,0.00,WUHU216HW,2013-01-20 18:42:00,
2013-01-20 13:47:00,23.8,10.3,29.96,West,270,1.6,8.3,56,0.00,,,0.00,WUHU216HW,2013-01-20 18:47:00,
2013-01-20 13:52:00,23.9,10.4,29.95,WSW,248,2.5,8.3,56,0.00,,,0.00,WUHU216HW,2013-01-20 18:52:00,
2013-01-20 13:57:00,23.8,10.3,29.95,WSW,248,1.8,6.3,56,0.00,,,0.00,WUHU216HW,2013-01-20 18:57:00,
2013-01-20 14:02:00,24.1,11.0,29.95,West,270,3.4,5.1,57,0.00,,,0.00,WUHU216HW,2013-01-20 19:02:00,
2013-01-20 14:07:00,24.7,11.2,29.96,NNW,338,3.6,6.3,56,0.00,,,0.00,WUHU216HW,2013-01-20 19:07:00,
2013-01-20 14:12:00,24.8,10.9,29.96,NW,315,1.3,6.3,55,0.00,,,0.00,WUHU216HW,2013-01-20 19:12:00,
2013-01-20 14:17:00,25.0,11.1,29.97,West,270,2.5,6.7,55,0.00,,,0.00,WUHU216HW,2013-01-20 19:17:00,
2013-01-20 14:22:00,25.2,10.8,29.97,WNW,293,5.1,6.7,54,0.00,,,0.00,WUHU216HW,2013-01-20 19:22:00,
2013-01-20 14:27:00,24.8,10.1,29.97,West,270,2.5,5.4,53,0.00,,,0.00,WUHU216HW,2013-01-20 19:27:00,
2013-01-20 14:32:00,25.0,10.3,29.97,NW,315,5.8,5.8,53,0.00,,,0.00,WUHU216HW,2013-01-20 19:32:00,
2013-01-20 14:37:00,24.8,10.1,29.97,SW,225,5.4,7.6,53,0.00,,,0.00,WUHU216HW,2013-01-20 19:37:00,
2013-01-20 14:42:00,25.0,10.3,29.98,WSW,248,4.5,7.6,53,0.00,,,0.00,WUHU216HW,2013-01-20 19:42:00,
2013-01-20 14:47:00,25.0,9.8,29.98,West,270,4.0,5.6,52,0.00,,,0.00,WUHU216HW,2013-01-20 19:47:00,
2013-01-20 14:52:00,25.4,10.2,29.98,SW,225,5.1,5.6,52,0.00,,,0.00,WUHU216HW,2013-01-20 19:52:00,
2013-01-20 14:57:00,25.2,10.0,29.98,West,270,5.4,5.4,52,0.00,,,0.00,WUHU216HW,2013-01-20 19:57:00,
2013-01-20 15:02:00,24.8,10.1,29.98,NNW,338,4.0,5.4,53,0.00,,,0.00,WUHU216HW,2013-01-20 20:02:00,
2013-01-20 15:07:00,25.4,10.5,29.97,SSW,203,6.9,6.9,53,0.00,,,0.00,WUHU216HW,2013-01-20 20:07:00,
2013-01-20 15:12:00,25.0,10.3,29.97,West,270,1.1,6.9,53,0.00,,,0.00,WUHU216HW,2013-01-20 20:12:00,
2013-01-20 15:17:00,24.8,10.4,29.97,SW,225,2.9,6.5,54,0.00,,,0.00,WUHU216HW,2013-01-20 20:17:00,
2013-01-20 15:22:00,24.7,10.7,29.97,WSW,248,2.7,6.5,55,0.00,,,0.00,WUHU216HW,2013-01-20 20:22:00,
2013-01-20 15:27:00,24.7,10.4,29.97,NNW,338,2.2,5.1,54,0.00,,,0.00,WUHU216HW,2013-01-20 20:27:00,
2013-01-20 15:32:00,24.7,9.9,29.98,West,270,5.4,5.4,53,0.00,,,0.00,WUHU216HW,2013-01-20 20:32:00,
2013-01-20 15:37:00,24.1,9.8,29.98,WSW,248,2.9,6.3,54,0.00,,,0.00,WUHU216HW,2013-01-20 20:37:00,
2013-01-20 15:42:00,23.8,9.9,29.99,West,270,5.4,7.2,55,0.00,,,0.00,WUHU216HW,2013-01-20 20:42:00,
2013-01-20 15:47:00,24.1,10.6,29.98,NNW,338,1.8,7.2,56,0.00,,,0.00,WUHU216HW,2013-01-20 20:47:00,
2013-01-20 15:52:00,24.1,10.2,29.98,WSW,248,7.8,7.8,55,0.00,,,0.00,WUHU216HW,2013-01-20 20:52:00,
2013-01-20 15:57:00,23.9,9.6,29.98,SW,225,2.0,7.8,54,0.00,,,0.00,WUHU216HW,2013-01-20 20:57:00,
2013-01-20 16:02:00,24.1,10.2,29.98,WNW,293,2.0,6.9,55,0.00,,,0.00,WUHU216HW,2013-01-20 21:02:00,
2013-01-20 16:07:00,24.1,9.8,29.98,WSW,248,2.5,5.4,54,0.00,,,0.00,WUHU216HW,2013-01-20 21:07:00,
2013-01-20 16:12:00,24.1,10.2,29.99,West,270,0.7,6.3,55,0.00,,,0.00,WUHU216HW,2013-01-20 21:12:00,
2013-01-20 16:17:00,23.8,9.9,29.99,NNW,338,5.1,6.3,55,0.00,,,0.00,WUHU216HW,2013-01-20 21:17:00,
2013-01-20 16:22:00,23.6,9.7,29.99,WNW,293,5.4,6.3,55,0.00,,,0.00,WUHU216HW,2013-01-20 21:22:00,
2013-01-20 16:27:00,23.4,9.9,29.98,NNW,338,5.4,6.3,56,0.00,,,0.00,WUHU216HW,2013-01-20 21:27:00,
2013-01-20 16:33:00,23.4,9.9,29.98,NNW,338,2.0,6.3,56,0.00,,,0.00,WUHU216HW,2013-01-20 21:33:00,
2013-01-20 16:38:00,23.4,10.4,29.98,SSW,203,1.6,6.3,57,0.00,,,0.00,WUHU216HW,2013-01-20 21:38:00,
2013-01-20 16:43:00,23.4,10.4,29.98,West,270,3.4,4.7,57,0.00,,,0.00,WUHU216HW,2013-01-20 21:43:00,
2013-01-20 16:48:00,23.2,10.2,29.98,WSW,248,6.0,9.2,57,0.00,,,0.00,WUHU216HW,2013-01-20 21:48:00,
2013-01-20 16:53:00,23.0,10.0,29.98,NW,315,3.1,9.2,57,0.00,,,0.00,WUHU216HW,2013-01-20 21:53:00,
2013-01-20 16:58:00,23.0,9.5,29.99,WNW,293,3.4,5.8,56,0.00,,,0.00,WUHU216HW,2013-01-20 21:58:00,
2013-01-20 17:03:00,22.7,9.6,29.99,West,270,2.7,10.3,57,0.00,,,0.00,WUHU216HW,2013-01-20 22:03:00,
2013-01-20 17:08:00,22.7,9.6,29.99,WSW,248,2.0,10.3,57,0.00,,,0.00,WUHU216HW,2013-01-20 22:08:00,
2013-01-20 17:13:00,22.7,9.6,29.99,WSW,248,5.4,11.2,57,0.00,,,0.00,WUHU216HW,2013-01-20 22:13:00,
2013-01-20 17:18:00,22.3,9.7,29.99,SW,225,4.7,11.2,58,0.00,,,0.00,WUHU216HW,2013-01-20 22:18:00,
2013-01-20 17:23:00,22.5,9.9,30.00,NW,315,1.8,5.4,58,0.00,,,0.00,WUHU216HW,2013-01-20 22:23:00,
2013-01-20 17:28:00,22.3,9.7,30.00,NW,315,6.3,6.3,58,0.00,,,0.00,WUHU216HW,2013-01-20 22:28:00,
2013-01-20 17:33:00,22.1,9.5,30.00,WSW,248,1.8,6.3,58,0.00,,,0.00,WUHU216HW,2013-01-20 22:33:00,
2013-01-20 17:38:00,22.1,9.5,30.00,West,270,4.3,5.4,58,0.00,,,0.00,WUHU216HW,2013-01-20 22:38:00,
2013-01-20 17:43:00,22.0,9.0,30.00,WSW,248,3.4,5.1,57,0.00,,,0.00,WUHU216HW,2013-01-20 22:43:00,
2013-01-20 17:48:00,22.0,9.0,30.00,NNW,338,1.6,5.1,57,0.00,,,0.00,WUHU216HW,2013-01-20 22:48:00,
2013-01-20 17:53:00,21.6,8.7,30.00,West,270,1.1,4.3,57,0.00,,,0.00,WUHU216HW,2013-01-20 22:53:00,
2013-01-20 17:58:00,21.6,9.0,30.00,WNW,293,1.1,4.3,58,0.00,,,0.00,WUHU216HW,2013-01-20 22:58:00,
2013-01-20 18:03:00,21.4,8.9,30.00,WSW,248,2.5,5.6,58,0.00,,,0.00,WUHU216HW,2013-01-20 23:03:00,
2013-01-20 18:08:00,21.4,9.3,30.00,WSW,248,1.6,5.6,59,0.00,,,0.00,WUHU216HW,2013-01-20 23:08:00,
2013-01-20 18:13:00,21.4,9.7,30.00,West,270,2.2,6.3,60,0.00,,,0.00,WUHU216HW,2013-01-20 23:13:00,
2013-01-20 18:18:00,21.4,9.7,30.00,WNW,293,4.7,6.3,60,0.00,,,0.00,WUHU216HW,2013-01-20 23:18:00,
2013-01-20 18:23:00,21.4,9.7,30.00,WSW,248,3.4,4.7,60,0.00,,,0.00,WUHU216HW,2013-01-20 23:23:00,
2013-01-20 18:28:00,21.4,9.7,30.01,SW,225,2.5,4.0,60,0.00,,,0.00,WUHU216HW,2013-01-20 23:28:00,
2013-01-20 18:33:00,21.4,9.7,30.00,WSW,248,0.4,3.8,60,0.00,,,0.00,WUHU216HW,2013-01-20 23:33:00,
2013-01-20 18:38:00,21.2,9.9,30.00,West,270,0.9,4.0,61,0.00,,,0.00,WUHU216HW,2013-01-20 23:38:00,
2013-01-20 18:43:00,21.2,9.9,30.01,WSW,248,4.0,4.0,61,0.00,,,0.00,WUHU216HW,2013-01-20 23:43:00,
2013-01-20 18:48:00,21.2,9.9,30.00,NW,315,1.8,4.0,61,0.00,,,0.00,WUHU216HW,2013-01-20 23:48:00,
2013-01-20 18:53:00,21.2,9.5,30.01,WSW,248,2.5,4.5,60,0.00,,,0.00,WUHU216HW,2013-01-20 23:53:00,
2013-01-20 18:58:00,21.2,9.9,30.01,NNW,338,5.4,5.4,61,0.00,,,0.00,WUHU216HW,2013-01-20 23:58:00,
2013-01-20 19:03:00,21.2,9.9,30.01,NNW,338,1.3,5.4,61,0.00,,,0.00,WUHU216HW,2013-01-21 00:03:00,
2013-01-20 19:08:00,21.1,9.7,30.00,NNW,338,1.3,3.4,61,0.00,,,0.00,WUHU216HW,2013-01-21 00:08:00,
2013-01-20 19:13:00,20.9,9.2,30.01,North,0,3.6,6.0,60,0.00,,,0.00,WUHU216HW,2013-01-21 00:13:00,
2013-01-20 19:18:00,20.9,9.2,30.01,NNW,338,3.4,8.3,60,0.00,,,0.00,WUHU216HW,2013-01-21 00:18:00,
2013-01-20 19:23:00,20.9,9.2,30.01,NNW,338,1.1,8.3,60,0.00,,,0.00,WUHU216HW,2013-01-21 00:23:00,
2013-01-20 19:28:00,20.9,8.7,30.01,NW,315,5.4,5.4,59,0.00,,,0.00,WUHU216HW,2013-01-21 00:28:00,
2013-01-20 19:33:00,20.9,8.7,30.01,WNW,293,7.8,7.8,59,0.00,,,0.00,WUHU216HW,2013-01-21 00:33:00,
2013-01-20 19:38:00,20.9,9.2,30.01,SSW,203,1.8,7.8,60,0.00,,,0.00,WUHU216HW,2013-01-21 00:38:00,
2013-01-20 19:43:00,20.9,8.7,30.01,NNW,338,2.5,8.1,59,0.00,,,0.00,WUHU216HW,2013-01-21 00:43:00,
2013-01-20 19:48:00,20.7,9.0,30.01,West,270,1.3,8.1,60,0.00,,,0.00,WUHU216HW,2013-01-21 00:48:00,
2013-01-20 19:53:00,20.5,8.4,30.01,South,180,3.8,6.3,59,0.00,,,0.00,WUHU216HW,2013-01-21 00:53:00,
2013-01-20 19:58:00,20.5,8.4,30.01,WNW,293,2.5,6.3,59,0.00,,,0.00,WUHU216HW,2013-01-21 00:58:00,
2013-01-20 20:03:00,20.5,8.0,30.01,WSW,248,1.6,4.3,58,0.00,,,0.00,WUHU216HW,2013-01-21 01:03:00,
2013-01-20 20:08:00,20.5,7.6,30.01,NNW,338,2.0,4.3,57,0.00,,,0.00,WUHU216HW,2013-01-21 01:08:00,
2013-01-20 20:13:00,20.5,8.0,30.01,WSW,248,2.7,2.7,58,0.00,,,0.00,WUHU216HW,2013-01-21 01:13:00,
2013-01-20 20:18:00,20.5,8.0,30.01,WSW,248,3.4,3.6,58,0.00,,,0.00,WUHU216HW,2013-01-21 01:18:00,
2013-01-20 20:23:00,20.5,8.4,30.00,NW,315,2.9,4.0,59,0.00,,,0.00,WUHU216HW,2013-01-21 01:23:00,
2013-01-20 20:28:00,20.5,8.4,30.01,SSW,203,2.5,4.0,59,0.00,,,0.00,WUHU216HW,2013-01-21 01:28:00,
2013-01-20 20:33:00,20.3,8.3,30.00,WSW,248,3.4,3.4,59,0.00,,,0.00,WUHU216HW,2013-01-21 01:33:00,
2013-01-20 20:38:00,20.3,8.3,30.00,West,270,2.9,3.6,59,0.00,,,0.00,WUHU216HW,2013-01-21 01:38:00,
2013-01-20 20:43:00,20.3,8.3,30.00,WSW,248,2.2,5.6,59,0.00,,,0.00,WUHU216HW,2013-01-21 01:43:00,
2013-01-20 20:48:00,20.3,8.3,30.00,West,270,3.8,5.6,59,0.00,,,0.00,WUHU216HW,2013-01-21 01:48:00,
2013-01-20 20:53:00,20.2,8.1,30.00,WNW,293,2.0,6.3,59,0.00,,,0.00,WUHU216HW,2013-01-21 01:53:00,
2013-01-20 20:58:00,20.2,8.1,30.00,SSW,203,4.0,6.3,59,0.00,,,0.00,WUHU216HW,2013-01-21 01:58:00,
2013-01-20 21:03:00,20.0,7.5,30.00,WSW,248,2.9,6.5,58,0.00,,,0.00,WUHU216HW,2013-01-21 02:03:00,
2013-01-20 21:08:00,20.0,7.9,30.00,West,270,4.7,6.5,59,0.00,,,0.00,WUHU216HW,2013-01-21 02:08:00,
2013-01-20 21:13:00,19.8,7.8,30.00,NW,315,2.2,4.7,59,0.00,,,0.00,WUHU216HW,2013-01-21 02:13:00,
2013-01-20 21:18:00,19.8,7.8,30.00,NNW,338,1.8,4.7,59,0.00,,,0.00,WUHU216HW,2013-01-21 02:18:00,
2013-01-20 21:23:00,19.8,7.8,30.00,West,270,0.4,3.6,59,0.00,,,0.00,WUHU216HW,2013-01-21 02:23:00,
2013-01-20 21:28:00,19.8,7.8,30.00,West,270,2.5,4.3,59,0.00,,,0.00,WUHU216HW,2013-01-21 02:28:00,
2013-01-20 21:33:00,20.0,8.3,30.00,NNW,338,2.0,5.6,60,0.00,,,0.00,WUHU216HW,2013-01-21 02:33:00,
2013-01-20 21:38:00,19.8,8.1,30.00,WNW,293,1.8,5.6,60,0.00,,,0.00,WUHU216HW,2013-01-21 02:38:00,
2013-01-20 21:43:00,19.8,8.1,30.00,West,270,4.7,7.6,60,0.00,,,0.00,WUHU216HW,2013-01-21 02:43:00,
2013-01-20 21:48:00,19.8,9.1,30.00,SW,225,4.3,7.6,63,0.00,,,0.00,WUHU216HW,2013-01-21 02:48:00,
2013-01-20 21:53:00,19.8,9.8,30.00,NNW,338,2.7,4.7,65,0.00,,,0.00,WUHU216HW,2013-01-21 02:53:00,
2013-01-20 21:58:00,19.8,9.8,30.00,WNW,293,1.1,3.8,65,0.00,,,0.00,WUHU216HW,2013-01-21 02:58:00,
2013-01-20 22:03:00,19.8,9.5,30.00,West,270,3.4,3.8,64,0.00,,,0.00,WUHU216HW,2013-01-21 03:03:00,
2013-01-20 22:08:00,19.8,9.1,30.00,NW,315,1.8,3.8,63,0.00,,,0.00,WUHU216HW,2013-01-21 03:08:00,
2013-01-20 22:13:00,19.8,9.1,30.00,West,270,2.5,3.4,63,0.00,,,0.00,WUHU216HW,2013-01-21 03:13:00,
2013-01-20 22:18:00,19.8,8.5,30.00,West,270,2.7,6.7,61,0.00,,,0.00,WUHU216HW,2013-01-21 03:18:00,
2013-01-20 22:23:00,19.8,8.5,30.00,NW,315,1.8,6.7,61,0.00,,,0.00,WUHU216HW,2013-01-21 03:23:00,
2013-01-20 22:28:00,19.8,8.5,30.00,WNW,293,1.8,4.0,61,0.00,,,0.00,WUHU216HW,2013-01-21 03:28:00,
2013-01-20 22:33:00,19.8,8.5,30.00,WSW,248,6.9,6.9,61,0.00,,,0.00,WUHU216HW,2013-01-21 03:33:00,
2013-01-20 22:38:00,19.6,8.3,30.00,West,270,3.6,10.5,61,0.00,,,0.00,WUHU216HW,2013-01-21 03:38:00,
2013-01-20 22:43:00,19.4,8.1,30.00,WSW,248,2.9,10.5,61,0.00,,,0.00,WUHU216HW,2013-01-21 03:43:00,
2013-01-20 22:48:00,19.4,8.1,30.00,WSW,248,2.0,7.4,61,0.00,,,0.00,WUHU216HW,2013-01-21 03:48:00,
2013-01-20 22:53:00,19.3,7.6,30.00,WSW,248,5.4,5.4,60,0.00,,,0.00,WUHU216HW,2013-01-21 03:53:00,
2013-01-20 22:58:00,19.4,7.7,30.00,NW,315,0.4,5.4,60,0.00,,,0.00,WUHU216HW,2013-01-21 03:58:00,
2013-01-20 23:03:00,19.3,7.2,29.99,WNW,293,4.3,4.7,59,0.00,,,0.00,WUHU216HW,2013-01-21 04:03:00,
2013-01-20 23:08:00,19.3,7.2,29.99,SW,225,1.8,5.4,59,0.00,,,0.00,WUHU216HW,2013-01-21 04:08:00,
2013-01-20 23:13:00,19.3,7.2,29.99,WSW,248,1.1,5.4,59,0.00,,,0.00,WUHU216HW,2013-01-21 04:13:00,
2013-01-20 23:18:00,19.1,6.7,29.99,WSW,248,2.5,4.0,58,0.00,,,0.00,WUHU216HW,2013-01-21 04:18:00,
2013-01-20 23:23:00,19.1,6.7,29.98,WSW,248,1.6,5.1,58,0.00,,,0.00,WUHU216HW,2013-01-21 04:23:00,
2013-01-20 23:28:00,19.1,6.7,29.98,West,270,2.0,5.1,58,0.00,,,0.00,WUHU216HW,2013-01-21 04:28:00,
2013-01-20 23:33:00,19.1,6.7,29.98,WSW,248,4.0,4.0,58,0.00,,,0.00,WUHU216HW,2013-01-21 04:33:00,
2013-01-20 23:38:00,19.1,6.7,29.98,NW,315,3.6,5.1,58,0.00,,,0.00,WUHU216HW,2013-01-21 04:38:00,
2013-01-20 23:43:00,19.1,6.7,29.98,NW,315,2.2,5.4,58,0.00,,,0.00,WUHU216HW,2013-01-21 04:43:00,
2013-01-20 23:48:00,19.1,6.2,29.98,WSW,248,0.9,5.4,57,0.00,,,0.00,WUHU216HW,2013-01-21 04:48:00,
2013-01-20 23:53:00,18.9,6.5,29.98,West,270,2.0,5.4,58,0.00,,,0.00,WUHU216HW,2013-01-21 04:53:00,
2013-01-20 23:58:00,19.1,6.7,29.98,WSW,248,2.0,6.9,58,0.00,,,0.00,WUHU216HW,2013-01-21 04:58:00,